Weather past 2 weeks in Mamoutzou, Mayotte

Now
82 °F

Passing clouds.


Feels Like: 85 °F
Forecast: 75 / 79 °F
Wind: 16 mph from Southwest

Location: Dzaoudzi / Pamanzi Mayotte

Current Time: Jul 8, 2015 at 10:47:01 AM

Latest Report: Jul 8, 2015 at 10:00 AM


Visibility: N/A

Pressure: 30.07 "Hg

Humidity: 58%

Dew point: 66 °F

Location of MamoutzouLocation

Historic Weather in Mamoutzou — Graph

°F

Mamoutzou temperature yesterday

Maximum temperature yesterday: 84 °F (at 10:30 AM)
Minimum temperature yesterday: 72 °F (at 2:00 AM)
Average temperature yesterday: 79 °F

Past Weeks' High & Low Weather Summary

 TemperatureHumidityPressure
High86 °F (Jun 26, 1:00 PM)94% (Jun 24, 2:00 AM)30.12 "Hg (Jun 24, 2:00 AM)
Low70 °F (Jun 30, 2:30 AM)48% (Jul 1, 10:30 AM)29.98 "Hg (Jun 30, 3:04 PM)
Average79 °F71%30.06 "Hg
* Reported Jun 23 9:00 AM — Jul 8 9:00 AM, Mamoutzou, Weather by CustomWeather, © 2015

Note: Actual official high and low records may vary slightly from our data, if they occured in-between our weather recording intervals... More about our weather records

Advertising

Mamoutzou weather history for previous 24 hours

 ConditionsComfort  
Time TempWeatherWind HumidityBarometerVisibility
9:00 AM
Wed, Jul 8
82 °FPassing clouds.16 mph55%30.07 "HgN/A
8:30 AM81 °FPassing clouds.14 mph58%30.04 "HgN/A
8:00 AM79 °FPassing clouds.14 mph61%30.04 "HgN/A
7:30 AM77 °FPassing clouds.12 mph65%30.04 "HgN/A
6:30 AM77 °FPassing clouds.12 mph65%30.01 "HgN/A
6:00 AM77 °FPassing clouds.13 mph69%30.01 "HgN/A
5:30 AM77 °FPassing clouds.16 mph65%29.98 "HgN/A
5:00 AM77 °FPassing clouds.17 mph65%29.98 "HgN/A
4:30 AM77 °FPassing clouds.18 mph65%29.98 "HgN/A
4:00 AM77 °FPassing clouds.16 mph69%29.98 "HgN/A
3:30 AM77 °FPartly cloudy.15 mph69%29.98 "HgN/A
3:00 AM77 °FPassing clouds.14 mph69%29.98 "HgN/A
2:30 AM77 °FPassing clouds.17 mph69%29.98 "HgN/A
2:00 AM77 °FPassing clouds.17 mph69%29.98 "HgN/A
1:30 AM77 °FPassing clouds.12 mph69%30.01 "HgN/A
1:00 AM77 °FPassing clouds.14 mph69%30.01 "HgN/A
12:30 AM77 °FPassing clouds.14 mph69%30.01 "HgN/A
12:00 AM77 °FWarm.15 mph69%30.01 "HgN/A
11:30 PM
Tue, Jul 7
77 °FPassing clouds.16 mph69%30.04 "HgN/A
11:00 PM77 °FPassing clouds.15 mph69%30.04 "HgN/A
10:30 PM77 °FPassing clouds.16 mph69%30.04 "HgN/A
10:00 PM77 °FPassing clouds.17 mph65%30.04 "HgN/A
9:30 PM77 °FWarm.16 mph65%30.04 "HgN/A
9:00 PM77 °FWarm.16 mph65%30.04 "HgN/A
8:30 PM79 °FWarm.18 mph61%30.04 "HgN/A
8:00 PM79 °FWarm.17 mph61%30.04 "HgN/A
7:30 PM79 °FWarm.20 mph65%30.04 "HgN/A
7:00 PM79 °FWarm.20 mph65%30.04 "HgN/A
6:30 PM79 °FPassing clouds.21 mph65%30.04 "HgN/A
6:00 PM79 °FPassing clouds.23 mph65%30.01 "HgN/A
5:00 PM79 °FScattered clouds.22 mph65%30.01 "HgN/A
4:30 PM81 °FScattered clouds.21 mph66%30.01 "HgN/A
4:00 PM81 °FPassing clouds.20 mph66%30.01 "HgN/A
3:30 PM82 °FPassing clouds.21 mph62%30.01 "HgN/A
3:00 PM82 °FPassing clouds.23 mph62%30.01 "HgN/A
2:30 PM82 °FPassing clouds.23 mph58%30.04 "HgN/A
2:00 PM82 °FPassing clouds.23 mph62%30.04 "HgN/A
1:30 PM84 °FPassing clouds.21 mph55%30.04 "HgN/A
12:30 PM84 °FPassing clouds.18 mph55%30.07 "HgN/A
12:00 PM84 °FPassing clouds.17 mph55%30.07 "HgN/A
11:00 AM84 °FScattered clouds.14 mph55%30.09 "HgN/A
10:30 AM84 °FBroken clouds.14 mph55%30.09 "HgN/A
Weather by CustomWeather, © 2015

See weather overviewHow to use our weather pages